Time,TemperatureF,DewpointF,PressureIn,WindDirection,WindDirectionDegrees,WindSpeedMPH,WindSpeedGustMPH,Humidity,HourlyPrecipIn,Conditions,Clouds,dailyrainin,SoftwareType,DateUTC
2013-01-04 07:19:00,14.2,10.5,30.30,WSW,248,5.0,5.0,85,0.00,,,0.00,Wunderground v.1.15,2013-01-04 13:19:00,
2013-01-04 07:21:00,14.4,10.7,30.30,West,259,5.0,6.0,85,0.00,,,0.00,Wunderground v.1.15,2013-01-04 13:21:00,
2013-01-04 07:25:00,14.7,11.0,30.30,WSW,238,5.0,8.0,85,0.00,,,0.00,Wunderground v.1.15,2013-01-04 13:25:00,
2013-01-04 07:29:00,14.9,11.2,30.30,WSW,240,5.0,5.0,85,0.00,,,0.00,Wunderground v.1.15,2013-01-04 13:29:00,
2013-01-04 07:35:00,15.2,11.5,30.30,SW,228,5.0,6.0,85,0.00,,,0.00,Wunderground v.1.15,2013-01-04 13:35:00,
2013-01-04 07:40:00,15.4,11.7,30.30,SW,226,5.0,6.0,85,0.00,,,0.00,Wunderground v.1.15,2013-01-04 13:40:00,
2013-01-04 07:46:00,15.5,11.8,30.30,WSW,257,5.0,7.0,85,0.00,,,0.00,Wunderground v.1.15,2013-01-04 13:46:00,
2013-01-04 07:52:00,15.6,11.6,30.31,SSW,198,5.0,6.0,84,0.00,,,0.00,Wunderground v.1.15,2013-01-04 13:52:00,
2013-01-04 07:57:00,14.9,10.7,30.31,SW,221,6.0,7.0,83,0.00,,,0.00,Wunderground v.1.15,2013-01-04 13:57:00,
2013-01-04 08:04:00,14.4,10.4,30.31,SW,225,5.0,6.0,84,0.00,,,0.00,Wunderground v.1.15,2013-01-04 14:04:00,
2013-01-04 08:09:00,14.6,10.9,30.31,WSW,240,5.0,6.0,85,0.00,,,0.00,Wunderground v.1.15,2013-01-04 14:09:00,
2013-01-04 08:15:00,15.0,11.3,30.30,SW,227,5.0,6.0,85,0.00,,,0.00,Wunderground v.1.15,2013-01-04 14:15:00,
2013-01-04 08:21:00,15.3,11.6,30.30,SW,215,5.0,8.0,85,0.00,,,0.00,Wunderground v.1.15,2013-01-04 14:21:00,
2013-01-04 08:26:00,15.4,11.4,30.30,SW,230,5.0,8.0,84,0.00,,,0.00,Wunderground v.1.15,2013-01-04 14:26:00,
2013-01-04 08:32:00,15.9,12.2,30.30,WSW,250,5.0,6.0,85,0.00,,,0.00,Wunderground v.1.15,2013-01-04 14:32:00,
2013-01-04 08:37:00,16.3,12.3,30.30,WSW,246,5.0,6.0,84,0.00,,,0.00,Wunderground v.1.15,2013-01-04 14:37:00,
2013-01-04 08:43:00,16.8,13.1,30.30,WSW,242,5.0,8.0,85,0.00,,,0.00,Wunderground v.1.15,2013-01-04 14:43:00,
2013-01-04 08:49:00,17.4,13.7,30.30,West,271,6.0,10.0,85,0.00,,,0.00,Wunderground v.1.15,2013-01-04 14:49:00,
2013-01-04 08:55:00,18.1,14.1,30.30,SW,227,6.0,10.0,84,0.00,,,0.00,Wunderground v.1.15,2013-01-04 14:55:00,
2013-01-04 09:00:00,18.2,14.2,30.30,SSW,211,6.0,6.0,84,0.00,,,0.00,Wunderground v.1.15,2013-01-04 15:00:00,
2013-01-04 09:06:00,19.3,15.3,30.30,SW,230,6.0,6.0,84,0.00,,,0.00,Wunderground v.1.15,2013-01-04 15:06:00,
2013-01-04 09:12:00,20.0,15.7,30.30,SW,234,6.0,9.0,83,0.00,,,0.00,Wunderground v.1.15,2013-01-04 15:12:00,
2013-01-04 09:18:00,20.8,16.5,30.31,WSW,254,6.0,9.0,83,0.00,,,0.00,Wunderground v.1.15,2013-01-04 15:18:00,
2013-01-04 09:23:00,21.3,16.4,30.31,SW,223,7.0,11.0,81,0.00,,,0.00,Wunderground v.1.15,2013-01-04 15:23:00,
2013-01-04 09:28:00,21.6,16.7,30.31,WSW,255,8.0,11.0,81,0.00,,,0.00,Wunderground v.1.15,2013-01-04 15:28:00,
2013-01-04 09:34:00,21.9,17.0,30.31,WSW,238,8.0,14.0,81,0.00,,,0.00,Wunderground v.1.15,2013-01-04 15:34:00,
2013-01-04 09:40:00,22.1,17.2,30.31,WSW,255,9.0,9.0,81,0.00,,,0.00,Wunderground v.1.15,2013-01-04 15:40:00,
2013-01-04 09:45:00,22.4,17.2,30.31,SW,235,8.0,10.0,80,0.00,,,0.00,Wunderground v.1.15,2013-01-04 15:45:00,
2013-01-04 09:51:00,23.1,18.1,30.32,WNW,286,8.0,8.0,81,0.00,,,0.00,Wunderground v.1.15,2013-01-04 15:51:00,
2013-01-04 09:57:00,23.5,18.2,30.32,WSW,250,7.0,9.0,80,0.00,,,0.00,Wunderground v.1.15,2013-01-04 15:57:00,
2013-01-04 10:02:00,23.9,18.6,30.32,WSW,254,7.0,7.0,80,0.00,,,0.00,Wunderground v.1.15,2013-01-04 16:02:00,
2013-01-04 10:08:00,24.2,18.6,30.32,West,264,7.0,13.0,79,0.00,,,0.00,Wunderground v.1.15,2013-01-04 16:08:00,
2013-01-04 10:13:00,24.5,19.2,30.31,WSW,238,8.0,12.0,80,0.00,,,0.00,Wunderground v.1.15,2013-01-04 16:13:00,
2013-01-04 10:19:00,24.9,19.6,30.31,SW,219,7.0,12.0,80,0.00,,,0.00,Wunderground v.1.15,2013-01-04 16:19:00,
2013-01-04 10:25:00,25.3,19.4,30.31,WSW,241,7.0,10.0,78,0.00,,,0.00,Wunderground v.1.15,2013-01-04 16:25:00,
2013-01-04 10:31:00,25.6,19.7,30.31,WNW,285,8.0,10.0,78,0.00,,,0.00,Wunderground v.1.15,2013-01-04 16:31:00,
2013-01-04 10:36:00,25.9,20.0,30.31,West,266,8.0,10.0,78,0.00,,,0.00,Wunderground v.1.15,2013-01-04 16:36:00,
2013-01-04 10:42:00,26.5,20.9,30.31,WSW,249,7.0,9.0,79,0.00,,,0.00,Wunderground v.1.15,2013-01-04 16:42:00,
2013-01-04 10:47:00,27.0,21.1,30.30,WSW,246,6.0,9.0,78,0.00,,,0.00,Wunderground v.1.15,2013-01-04 16:47:00,
2013-01-04 10:53:00,27.4,21.1,30.30,West,271,7.0,9.0,77,0.00,,,0.00,Wunderground v.1.15,2013-01-04 16:53:00,
2013-01-04 10:59:00,27.4,21.1,30.29,West,263,8.0,12.0,77,0.00,,,0.00,Wunderground v.1.15,2013-01-04 16:59:00,
2013-01-04 11:05:00,27.7,21.4,30.29,SW,234,8.0,14.0,77,0.00,,,0.00,Wunderground v.1.15,2013-01-04 17:05:00,
2013-01-04 11:11:00,28.1,22.1,30.29,WSW,255,8.0,8.0,78,0.00,,,0.00,Wunderground v.1.15,2013-01-04 17:11:00,
2013-01-04 11:16:00,28.6,22.3,30.29,WNW,290,7.0,10.0,77,0.00,,,0.00,Wunderground v.1.15,2013-01-04 17:16:00,
2013-01-04 11:22:00,28.8,22.2,30.29,SW,219,8.0,14.0,76,0.00,,,0.00,Wunderground v.1.15,2013-01-04 17:22:00,
2013-01-04 11:28:00,28.7,22.1,30.28,WSW,238,8.0,14.0,76,0.00,,,0.00,Wunderground v.1.15,2013-01-04 17:28:00,
2013-01-04 11:33:00,28.9,22.3,30.28,WSW,256,8.0,11.0,76,0.00,,,0.00,Wunderground v.1.15,2013-01-04 17:33:00,
2013-01-04 11:39:00,29.2,22.9,30.28,West,260,8.0,12.0,77,0.00,,,0.00,Wunderground v.1.15,2013-01-04 17:39:00,
2013-01-04 11:45:00,29.3,22.7,30.28,West,268,8.0,8.0,76,0.00,,,0.00,Wunderground v.1.15,2013-01-04 17:45:00,
2013-01-04 11:51:00,29.6,23.0,30.27,WSW,243,8.0,8.0,76,0.00,,,0.00,Wunderground v.1.15,2013-01-04 17:51:00,
2013-01-04 11:56:00,29.9,23.6,30.27,West,267,7.0,10.0,77,0.00,,,0.00,Wunderground v.1.15,2013-01-04 17:56:00,
2013-01-04 12:02:00,30.4,23.7,30.27,WSW,254,7.0,11.0,76,0.00,,,0.00,Wunderground v.1.15,2013-01-04 18:02:00,
2013-01-04 12:08:00,30.3,23.6,30.27,WNW,290,8.0,14.0,76,0.00,,,0.00,Wunderground v.1.15,2013-01-04 18:08:00,
2013-01-04 12:14:00,30.3,23.3,30.26,SSW,202,8.0,10.0,75,0.00,,,0.00,Wunderground v.1.15,2013-01-04 18:14:00,
2013-01-04 12:20:00,30.2,23.2,30.26,West,273,8.0,9.0,75,0.00,,,0.00,Wunderground v.1.15,2013-01-04 18:20:00,
2013-01-04 12:26:00,30.2,23.2,30.26,WSW,244,8.0,12.0,75,0.00,,,0.00,Wunderground v.1.15,2013-01-04 18:26:00,
2013-01-04 12:31:00,30.2,23.5,30.26,WSW,247,8.0,9.0,76,0.00,,,0.00,Wunderground v.1.15,2013-01-04 18:31:00,
2013-01-04 12:36:00,30.3,24.0,30.26,West,259,8.0,10.0,77,0.00,,,0.00,Wunderground v.1.15,2013-01-04 18:36:00,
2013-01-04 12:42:00,30.5,23.5,30.26,WSW,250,9.0,14.0,75,0.00,,,0.00,Wunderground v.1.15,2013-01-04 18:42:00,
2013-01-04 12:47:00,30.5,23.5,30.26,WSW,250,9.0,14.0,75,0.00,,,0.00,Wunderground v.1.15,2013-01-04 18:47:00,
2013-01-04 12:53:00,31.0,24.6,30.25,WSW,238,8.0,9.0,77,0.00,,,0.00,Wunderground v.1.15,2013-01-04 18:53:00,
2013-01-04 12:59:00,30.9,23.9,30.26,SW,228,9.0,14.0,75,0.00,,,0.00,Wunderground v.1.15,2013-01-04 18:59:00,
2013-01-04 13:05:00,31.0,24.6,30.25,WSW,242,9.0,14.0,77,0.00,,,0.00,Wunderground v.1.15,2013-01-04 19:05:00,
2013-01-04 13:11:00,31.4,25.0,30.25,WNW,288,9.0,9.0,77,0.00,,,0.00,Wunderground v.1.15,2013-01-04 19:11:00,
2013-01-04 13:16:00,31.5,24.5,30.25,WSW,246,9.0,17.0,75,0.00,,,0.00,Wunderground v.1.15,2013-01-04 19:16:00,
2013-01-04 13:22:00,31.6,24.9,30.25,WSW,244,9.0,15.0,76,0.00,,,0.00,Wunderground v.1.15,2013-01-04 19:22:00,
2013-01-04 13:28:00,32.0,25.3,30.24,WSW,248,9.0,15.0,76,0.00,,,0.00,Wunderground v.1.15,2013-01-04 19:28:00,
2013-01-04 13:34:00,31.9,24.9,30.24,WSW,250,9.0,13.0,75,0.00,,,0.00,Wunderground v.1.15,2013-01-04 19:34:00,
2013-01-04 13:40:00,32.1,25.1,30.24,WSW,252,9.0,9.0,75,0.00,,,0.00,Wunderground v.1.15,2013-01-04 19:40:00,
2013-01-04 13:45:00,32.0,25.0,30.24,WSW,242,9.0,13.0,75,0.00,,,0.00,Wunderground v.1.15,2013-01-04 19:45:00,
2013-01-04 13:51:00,32.2,25.2,30.24,SW,225,9.0,12.0,75,0.00,,,0.00,Wunderground v.1.15,2013-01-04 19:51:00,
2013-01-04 13:57:00,32.3,25.3,30.24,WNW,289,8.0,12.0,75,0.00,,,0.00,Wunderground v.1.15,2013-01-04 19:57:00,
2013-01-04 14:04:00,32.3,25.3,30.24,WSW,244,8.0,12.0,75,0.00,,,0.00,Wunderground v.1.15,2013-01-04 20:04:00,
2013-01-04 14:09:00,32.6,25.9,30.24,West,264,8.0,12.0,76,0.00,,,0.00,Wunderground v.1.15,2013-01-04 20:09:00,
2013-01-04 14:15:00,32.8,25.7,30.24,WSW,256,8.0,10.0,75,0.00,,,0.00,Wunderground v.1.15,2013-01-04 20:15:00,
2013-01-04 14:20:00,32.8,25.7,30.24,WSW,255,8.0,8.0,75,0.00,,,0.00,Wunderground v.1.15,2013-01-04 20:20:00,
2013-01-04 14:26:00,33.1,26.0,30.24,SSW,209,8.0,12.0,75,0.00,,,0.00,Wunderground v.1.15,2013-01-04 20:26:00,
2013-01-04 14:32:00,33.3,25.9,30.24,West,261,8.0,12.0,74,0.00,,,0.00,Wunderground v.1.15,2013-01-04 20:32:00,
2013-01-04 14:37:00,33.4,26.0,30.24,SW,236,8.0,12.0,74,0.00,,,0.00,Wunderground v.1.15,2013-01-04 20:37:00,
2013-01-04 14:43:00,33.3,25.9,30.24,WSW,238,8.0,11.0,74,0.00,,,0.00,Wunderground v.1.15,2013-01-04 20:43:00,
2013-01-04 14:49:00,33.3,26.2,30.24,WSW,250,8.0,12.0,75,0.00,,,0.00,Wunderground v.1.15,2013-01-04 20:49:00,
2013-01-04 14:55:00,33.3,25.9,30.24,WSW,250,8.0,10.0,74,0.00,,,0.00,Wunderground v.1.15,2013-01-04 20:55:00,
2013-01-04 15:01:00,33.4,26.0,30.24,SW,221,8.0,8.0,74,0.00,,,0.00,Wunderground v.1.15,2013-01-04 21:01:00,
2013-01-04 15:07:00,33.5,26.1,30.24,WSW,250,8.0,15.0,74,0.00,,,0.00,Wunderground v.1.15,2013-01-04 21:07:00,
2013-01-04 15:12:00,33.7,26.3,30.25,West,281,7.0,13.0,74,0.00,,,0.00,Wunderground v.1.15,2013-01-04 21:12:00,
2013-01-04 15:18:00,33.8,26.4,30.25,SW,219,6.0,13.0,74,0.00,,,0.00,Wunderground v.1.15,2013-01-04 21:18:00,
2013-01-04 15:24:00,33.7,26.3,30.25,SW,220,6.0,8.0,74,0.00,,,0.00,Wunderground v.1.15,2013-01-04 21:24:00,
2013-01-04 15:30:00,33.4,26.0,30.25,WSW,243,7.0,8.0,74,0.00,,,0.00,Wunderground v.1.15,2013-01-04 21:30:00,
2013-01-04 15:36:00,33.4,26.0,30.25,WSW,240,7.0,9.0,74,0.00,,,0.00,Wunderground v.1.15,2013-01-04 21:36:00,
2013-01-04 15:42:00,33.2,26.1,30.25,SSW,206,7.0,7.0,75,0.00,,,0.00,Wunderground v.1.15,2013-01-04 21:42:00,
2013-01-04 15:48:00,32.7,26.0,30.25,SSW,208,7.0,9.0,76,0.00,,,0.00,Wunderground v.1.15,2013-01-04 21:48:00,
2013-01-04 15:54:00,32.1,25.7,30.25,SW,225,8.0,9.0,77,0.00,,,0.00,Wunderground v.1.15,2013-01-04 21:54:00,
2013-01-04 16:00:00,31.8,25.4,30.25,WSW,240,8.0,9.0,77,0.00,,,0.00,Wunderground v.1.15,2013-01-04 22:00:00,
2013-01-04 16:05:00,31.5,25.4,30.25,SW,232,8.0,13.0,78,0.00,,,0.00,Wunderground v.1.15,2013-01-04 22:05:00,
2013-01-04 16:11:00,31.1,25.3,30.25,SW,221,9.0,11.0,79,0.00,,,0.00,Wunderground v.1.15,2013-01-04 22:11:00,
2013-01-04 16:17:00,30.8,25.4,30.25,SSW,196,9.0,12.0,80,0.00,,,0.00,Wunderground v.1.15,2013-01-04 22:17:00,
2013-01-04 16:22:00,30.5,25.1,30.25,WSW,251,8.0,14.0,80,0.00,,,0.00,Wunderground v.1.15,2013-01-04 22:22:00,
2013-01-04 16:28:00,30.3,24.9,30.25,SW,229,8.0,14.0,80,0.00,,,0.00,Wunderground v.1.15,2013-01-04 22:28:00,
2013-01-04 16:34:00,30.1,24.7,30.25,WSW,239,8.0,8.0,80,0.00,,,0.00,Wunderground v.1.15,2013-01-04 22:34:00,